Tracking 20040 objects as of 19-Nov-2019
Live streaming from Space Station
objects crossing your sky now

SL-8 DEB

Track SL-8 DEB now!
10-day predictions


NORAD ID: 11752
Int'l Code: 1980-026C
Perigee: 973.7 km
Apogee: 1,003.6 km
Inclination: 65.8 °
Period: 104.7 minutes
Semi major axis: 7359 km
RCS: 0.4567 m2 (medium)
Launch date: April 3, 1980
Source: Commonwealth of Independent States (former USSR) (CIS)
Launch site: PLESETSK MISSILE AND SPACE COMPLEX (PKMTR)

Note: This is SATELLITE DEBRIS
aabbcc
Your satellite tracking list
Your tracking list is empty




NASA's NSSDC Master Catalog

Two Line Element Set (TLE):
1 11752U 80026C   19321.94982958 -.00000047 +00000-0 +35295-4 0  9992
2 11752 065.8424 225.5591 0020292 355.7003 078.9706 13.75053882988637
Source of the keplerian elements: AFSPC